This demonstration page uses our WeatherBlox Daily Observations layout. Learn more.

Left ArrowRight Arrow

Hourly Observations for May 20, 2022

Temp ( °F °C ) Dew Point ( °F °C ) Humidity (%) Winds ( mph kmh ) Pressure ( in mb ) Visibility ( mi km ) Precip ( " mm )
12:51 am 00:51 Clear 74 23.3 29 -1.7 19 19 NW 15 24 29.56 1001 10 16 0.00 0.00
1:51 am 01:51 Clear 73 22.8 31 -0.6 21 21 NNW 15 24 29.56 1001 10 16 0.00 0.00
2:51 am 02:51 Clear 72 22.2 31 -0.6 22 22 NNW 12 19 29.55 1001 10 16 0.00 0.00
3:51 am 03:51 Clear 70 21.1 30 -1.1 23 23 NNW 9 15 29.55 1001 10 16 0.00 0.00
4:51 am 04:51 Clear 64 17.8 30 -1.1 28 28 S 5 7 29.58 1002 10 16 0.00 0.00
5:51 am 05:51 Sunny 60 15.6 29 -1.7 31 31 ESE 7 11 29.61 1003 10 16 0.00 0.00
6:51 am 06:51 Sunny 67 19.4 30 -1.1 25 25 E 6 9 29.61 1003 10 16 0.00 0.00
7:51 am 07:51 Sunny 72 22.2 30 -1.1 21 21 ESE 6 9 29.61 1003 10 16 0.00 0.00
8:51 am 08:51 Sunny 78 25.6 29 -1.7 16 16 E 6 9 29.60 1002 10 16 0.00 0.00
9:51 am 09:51 Sunny 81 27.2 26 -3.3 13 13 E 8 13 29.59 1002 10 16 0.00 0.00
10:51 am 10:51 Sunny 83 28.3 24 -4.4 11 11 VRB 3 6 29.57 1001 10 16 0.00 0.00
11:51 am 11:51 Sunny 87 30.6 25 -3.9 10 10 VRB 6 9 29.55 1001 10 16 0.00 0.00
12:51 pm 12:51 Sunny 88 31.1 25 -3.9 10 10 S 13 20 29.52 1000 10 16 0.00 0.00
1:51 pm 13:51 Sunny 93 33.9 28 -2.2 10 10 WNW 17 28 29.50 999 10 16 0.00 0.00
2:51 pm 14:51 Sunny 92 33.3 27 -2.8 10 10 WNW 24 39 29.49 999 10 16 0.00 0.00
3:51 pm 15:51 Sunny 92 33.3 27 -2.8 10 10 WNW 14 22 29.48 998 10 16 0.00 0.00
4:51 pm 16:51 Sunny 91 32.8 26 -3.3 9 9 W 20 31 29.49 999 10 16 0.00 0.00
5:51 pm 17:51 Sunny 89 31.7 28 -2.2 11 11 WSW 14 22 29.51 999 10 16 0.00 0.00
6:51 pm 18:51 Sunny 86 30 28 -2.2 12 12 W 16 26 29.52 1000 10 16 0.00 0.00
7:51 pm 19:51 Clear 83 28.3 28 -2.2 13 13 W 18 30 29.54 1000 10 16 0.00 0.00
8:51 pm 20:51 Clear 81 27.2 30 -1.1 16 16 W 13 20 29.57 1001 10 16 0.00 0.00
9:51 pm 21:51 Clear 74 23.3 28 -2.2 18 18 NW 9 15 29.60 1003 10 16 0.00 0.00
10:51 pm 22:51 Clear 76 24.4 34 1.1 22 22 NW 14 22 29.62 1003 10 16 0.00 0.00
11:51 pm 23:51 Clear 74 23.3 35 1.7 24 24 NW 13 20 29.63 1003 10 16 0.00 0.00

Powered by AerisWeather